Radiation Dose at Monitoring Post of Fukushima Daini Nuclear Power Station
Date,Time,MP-1(microSv/h),MP-2(microSv/h),MP-3(microSv/h),MP-4(microSv/h),MP-5(microSv/h),MP-6(microSv/h),MP-7(microSv/h),Wind Direction,Wind Velocity(m/s),Rain
2016/12/11,00:00,0.389,0.233,0.405,0.376,0.344,0.194,0.167,north,2.2,No
2016/12/11,00:10,0.387,0.236,0.406,0.373,0.343,0.195,0.167,north-northeast,3.8,No
2016/12/11,00:20,0.388,0.234,0.403,0.374,0.344,0.193,0.166,northeast,3.3,No
2016/12/11,00:30,0.389,0.234,0.404,0.376,0.344,0.195,0.166,northeast,2.2,No
2016/12/11,00:40,0.388,0.233,0.405,0.376,0.344,0.194,0.167,northeast,2.4,No
2016/12/11,00:50,0.388,0.233,0.405,0.376,0.344,0.195,0.167,northeast,1.5,No
2016/12/11,01:00,0.387,0.234,0.406,0.375,0.344,0.194,0.167,northeast,2.3,No
2016/12/11,01:10,0.387,0.234,0.404,0.373,0.344,0.194,0.167,northwest,1.1,No
2016/12/11,01:20,0.389,0.234,0.404,0.374,0.344,0.193,0.167,north,1.7,No
2016/12/11,01:30,0.388,0.233,0.404,0.376,0.344,0.194,0.167,north,2.5,No
2016/12/11,01:40,0.387,0.233,0.405,0.375,0.344,0.195,0.166,north-northwest,4.8,No
2016/12/11,01:50,0.388,0.233,0.405,0.374,0.343,0.195,0.167,north-northwest,4.1,No
2016/12/11,02:00,0.389,0.234,0.405,0.375,0.344,0.194,0.166,north,2.4,No
2016/12/11,02:10,0.390,0.233,0.403,0.375,0.344,0.194,0.166,northwest,1.8,No
2016/12/11,02:20,0.388,0.233,0.405,0.373,0.344,0.193,0.167,north-northwest,2.6,No
2016/12/11,02:30,0.388,0.235,0.405,0.374,0.345,0.193,0.166,north,1.7,No
2016/12/11,02:40,0.389,0.234,0.404,0.375,0.344,0.195,0.168,north,1.7,No
2016/12/11,02:50,0.390,0.234,0.403,0.376,0.344,0.194,0.168,north,2.5,No
2016/12/11,03:00,0.387,0.234,0.406,0.374,0.344,0.194,0.166,north,2.6,No
2016/12/11,03:10,0.387,0.235,0.405,0.374,0.345,0.193,0.167,north-northwest,2.3,No
2016/12/11,03:20,0.388,0.233,0.405,0.375,0.344,0.194,0.166,north,2.3,No
2016/12/11,03:30,0.387,0.234,0.403,0.375,0.343,0.194,0.167,north,3.1,No
2016/12/11,03:40,0.389,0.234,0.403,0.374,0.343,0.194,0.167,north,3.2,No
2016/12/11,03:50,0.389,0.234,0.405,0.375,0.345,0.193,0.167,north,1.7,No
2016/12/11,04:00,0.388,0.234,0.405,0.375,0.343,0.194,0.167,north-northwest,0.9,No
2016/12/11,04:10,0.387,0.235,0.405,0.375,0.344,0.195,0.167,north-northwest,1.4,No
2016/12/11,04:20,0.390,0.234,0.404,0.376,0.344,0.194,0.167,west-northwest,0.8,No
2016/12/11,04:30,0.388,0.234,0.405,0.375,0.343,0.193,0.167,north,2.0,No
2016/12/11,04:40,0.388,0.234,0.404,0.376,0.343,0.194,0.167,north,4.7,No
2016/12/11,04:50,0.389,0.234,0.406,0.374,0.344,0.193,0.167,north,5.7,No
2016/12/11,05:00,0.388,0.234,0.406,0.375,0.345,0.194,0.166,north,6.3,No
2016/12/11,05:10,0.389,0.235,0.405,0.376,0.344,0.194,0.168,north,5.2,No
2016/12/11,05:20,0.388,0.233,0.404,0.374,0.343,0.194,0.167,north,2.8,No
2016/12/11,05:30,0.389,0.234,0.405,0.376,0.344,0.193,0.167,north,3.6,No
2016/12/11,05:40,0.388,0.234,0.407,0.374,0.343,0.194,0.167,north,2.5,No
2016/12/11,05:50,0.388,0.233,0.405,0.375,0.345,0.193,0.167,north,1.2,No
2016/12/11,06:00,0.387,0.234,0.404,0.374,0.345,0.194,0.167,northwest,1.0,No
2016/12/11,06:10,0.389,0.233,0.404,0.373,0.344,0.193,0.167,west-northwest,0.9,No
2016/12/11,06:20,0.389,0.234,0.405,0.374,0.344,0.193,0.167,-,CALM,No
2016/12/11,06:30,0.388,0.232,0.406,0.374,0.343,0.194,0.167,south-southwest,1.9,No
2016/12/11,06:40,0.388,0.235,0.404,0.375,0.344,0.194,0.167,south-southwest,2.4,No
2016/12/11,06:50,0.388,0.234,0.403,0.374,0.344,0.193,0.167,south-southwest,2.8,No
2016/12/11,07:00,0.389,0.233,0.406,0.373,0.342,0.194,0.166,south-southwest,2.8,No
2016/12/11,07:10,0.389,0.234,0.404,0.374,0.343,0.194,0.167,southwest,1.8,No
2016/12/11,07:20,0.388,0.235,0.406,0.375,0.344,0.194,0.167,southwest,3.4,No
2016/12/11,07:30,0.388,0.235,0.406,0.375,0.343,0.193,0.167,west-southwest,3.7,No
2016/12/11,07:40,0.389,0.234,0.405,0.374,0.343,0.194,0.166,west-southwest,2.8,No
2016/12/11,07:50,0.388,0.233,0.403,0.373,0.343,0.193,0.166,southwest,2.1,No
2016/12/11,08:00,0.388,0.233,0.404,0.375,0.343,0.194,0.167,south-southwest,1.1,No
2016/12/11,08:10,0.388,0.234,0.403,0.374,0.343,0.194,0.167,northwest,1.1,No
2016/12/11,08:20,0.387,0.233,0.406,0.373,0.343,0.194,0.166,west-northwest,0.9,No
2016/12/11,08:30,0.389,0.233,0.404,0.373,0.343,0.192,0.167,north-northwest,2.0,No
2016/12/11,08:40,0.388,0.233,0.402,0.373,0.345,0.193,0.166,north,1.9,No
2016/12/11,08:50,0.387,0.234,0.403,0.371,0.344,0.194,0.166,north,2.8,No
2016/12/11,09:00,0.388,0.233,0.405,0.375,0.344,0.193,0.167,north,2.6,No
2016/12/11,09:10,0.389,0.233,0.403,0.375,0.343,0.193,0.167,north,3.0,No
2016/12/11,09:20,0.388,0.233,0.404,0.375,0.344,0.193,0.166,north-northeast,2.2,No
2016/12/11,09:30,0.388,0.233,0.404,0.376,0.344,0.193,0.166,northeast,1.1,No
2016/12/11,09:40,0.388,0.233,0.404,0.374,0.343,0.193,0.166,east-southeast,1.1,No
2016/12/11,09:50,0.389,0.234,0.404,0.374,0.345,0.193,0.166,east-northeast,0.6,No
2016/12/11,10:00,0.387,0.233,0.402,0.376,0.343,0.193,0.167,south-southeast,0.6,No
2016/12/11,10:10,0.388,0.233,0.405,0.377,0.345,0.193,0.167,north,1.0,No
2016/12/11,10:20,0.390,0.235,0.403,0.373,0.345,0.193,0.167,north-northeast,1.0,No
2016/12/11,10:30,0.388,0.234,0.404,0.375,0.345,0.194,0.167,-,CALM,No
2016/12/11,10:40,0.387,0.234,0.404,0.374,0.343,0.194,0.168,east-northeast,0.8,No
2016/12/11,10:50,0.389,0.235,0.404,0.373,0.345,0.194,0.167,east-northeast,0.7,No
2016/12/11,11:00,0.387,0.234,0.403,0.376,0.345,0.193,0.167,north,1.0,No
2016/12/11,11:10,0.387,0.235,0.404,0.374,0.343,0.194,0.167,north,2.6,No
2016/12/11,11:20,0.387,0.233,0.404,0.373,0.345,0.194,0.167,north,5.2,No
2016/12/11,11:30,0.388,0.235,0.402,0.376,0.344,0.193,0.166,north-northwest,3.9,No
2016/12/11,11:40,0.386,0.233,0.407,0.374,0.341,0.194,0.167,west-northwest,3.2,No
2016/12/11,11:50,0.388,0.233,0.401,0.375,0.345,0.194,0.167,west-northwest,5.7,No
2016/12/11,12:00,0.387,0.233,0.403,0.372,0.344,0.194,0.167,north-northwest,5.1,No
2016/12/11,12:10,0.385,0.233,0.402,0.374,0.343,0.193,0.165,west-northwest,5.1,No
2016/12/11,12:20,0.386,0.232,0.403,0.373,0.344,0.194,0.167,northwest,8.8,No
2016/12/11,12:30,0.386,0.233,0.402,0.372,0.342,0.193,0.166,north-northwest,8.1,No
2016/12/11,12:40,0.388,0.234,0.403,0.374,0.343,0.194,0.167,north-northwest,5.6,No
2016/12/11,12:50,0.386,0.235,0.405,0.373,0.345,0.195,0.166,northwest,5.9,No
2016/12/11,13:00,0.386,0.235,0.404,0.376,0.346,0.195,0.166,northwest,5.3,No
2016/12/11,13:10,0.388,0.234,0.403,0.375,0.344,0.194,0.167,west-northwest,5.3,No
2016/12/11,13:20,0.386,0.235,0.406,0.374,0.348,0.194,0.165,west-northwest,5.4,No
2016/12/11,13:30,0.386,0.234,0.403,0.375,0.346,0.193,0.166,west-northwest,7.0,No
2016/12/11,13:40,0.390,0.234,0.406,0.373,0.344,0.194,0.167,west-northwest,6.8,No
2016/12/11,13:50,0.386,0.233,0.404,0.377,0.346,0.194,0.166,northwest,4.7,No
2016/12/11,14:00,0.387,0.234,0.405,0.374,0.343,0.194,0.167,northwest,6.1,No
2016/12/11,14:10,0.388,0.235,0.406,0.375,0.345,0.193,0.168,northwest,4.4,No
2016/12/11,14:20,0.389,0.233,0.406,0.376,0.346,0.194,0.168,west-northwest,5.3,No
2016/12/11,14:30,0.388,0.233,0.404,0.376,0.343,0.193,0.167,west-northwest,3.6,No
2016/12/11,14:40,0.390,0.235,0.404,0.378,0.345,0.194,0.168,west-northwest,8.4,No
2016/12/11,14:50,0.388,0.234,0.406,0.376,0.345,0.193,0.169,north-northwest,6.2,No
2016/12/11,15:00,0.389,0.234,0.405,0.376,0.344,0.193,0.168,north-northwest,9.2,No
2016/12/11,15:10,0.391,0.233,0.405,0.376,0.345,0.195,0.168,northwest,6.7,No
2016/12/11,15:20,0.389,0.234,0.407,0.376,0.347,0.194,0.168,north-northwest,8.0,No
2016/12/11,15:30,0.390,0.234,0.405,0.375,0.344,0.194,0.168,west-northwest,5.6,No
2016/12/11,15:40,0.389,0.234,0.406,0.378,0.344,0.194,0.167,west-northwest,3.0,No
2016/12/11,15:50,0.390,0.235,0.405,0.376,0.345,0.195,0.167,north-northwest,2.4,No
2016/12/11,16:00,0.390,0.234,0.404,0.375,0.346,0.195,0.168,northwest,0.8,No
2016/12/11,16:10,0.389,0.234,0.406,0.376,0.345,0.195,0.166,north,4.0,No
2016/12/11,16:20,0.388,0.234,0.406,0.376,0.345,0.194,0.167,north-northwest,5.1,No
2016/12/11,16:30,0.387,0.234,0.405,0.375,0.346,0.195,0.168,north,4.3,No
2016/12/11,16:40,0.391,0.234,0.406,0.376,0.344,0.194,0.167,north-northwest,2.0,No
2016/12/11,16:50,0.389,0.235,0.406,0.376,0.345,0.193,0.167,north-northwest,1.4,No
2016/12/11,17:00,0.390,0.234,0.406,0.375,0.343,0.195,0.167,west,1.7,No
2016/12/11,17:10,0.387,0.234,0.406,0.376,0.345,0.194,0.167,northwest,1.6,No
2016/12/11,17:20,0.389,0.234,0.404,0.376,0.346,0.195,0.167,north-northwest,2.7,No
2016/12/11,17:30,0.390,0.234,0.406,0.374,0.344,0.195,0.167,north-northwest,2.8,No
2016/12/11,17:40,0.389,0.235,0.406,0.375,0.344,0.196,0.168,north-northwest,2.1,No
2016/12/11,17:50,0.388,0.235,0.406,0.377,0.344,0.195,0.167,northwest,2.7,No
2016/12/11,18:00,0.390,0.235,0.406,0.378,0.345,0.194,0.167,north-northwest,3.6,No
2016/12/11,18:10,0.389,0.234,0.404,0.375,0.344,0.195,0.167,north-northwest,4.1,No
2016/12/11,18:20,0.389,0.234,0.407,0.375,0.344,0.194,0.167,northwest,5.0,No
2016/12/11,18:30,0.388,0.236,0.406,0.375,0.345,0.194,0.168,northwest,5.6,No
2016/12/11,18:40,0.388,0.235,0.407,0.375,0.345,0.194,0.167,northwest,6.0,No
2016/12/11,18:50,0.390,0.234,0.405,0.376,0.345,0.195,0.168,northwest,3.2,No
2016/12/11,19:00,0.390,0.234,0.406,0.377,0.343,0.195,0.167,northwest,1.9,No
2016/12/11,19:10,0.389,0.235,0.405,0.374,0.344,0.194,0.167,northwest,5.9,No
2016/12/11,19:20,0.389,0.235,0.406,0.375,0.345,0.194,0.166,west-northwest,5.3,No
2016/12/11,19:30,0.390,0.236,0.404,0.376,0.345,0.194,0.167,northwest,5.4,No
2016/12/11,19:40,0.389,0.234,0.406,0.375,0.345,0.195,0.167,west-northwest,4.6,No
2016/12/11,19:50,0.388,0.234,0.406,0.375,0.344,0.193,0.167,west-northwest,3.5,No
2016/12/11,20:00,0.388,0.234,0.407,0.376,0.344,0.194,0.168,west-northwest,3.0,No
2016/12/11,20:10,0.388,0.234,0.406,0.377,0.345,0.193,0.167,west-northwest,4.2,No
2016/12/11,20:20,0.389,0.234,0.406,0.377,0.344,0.194,0.168,northwest,4.8,No
2016/12/11,20:30,0.390,0.236,0.406,0.376,0.343,0.195,0.167,northwest,5.3,No
2016/12/11,20:40,0.389,0.234,0.407,0.375,0.344,0.194,0.167,northwest,6.4,No
2016/12/11,20:50,0.389,0.234,0.406,0.378,0.344,0.194,0.167,northwest,7.3,No
2016/12/11,21:00,0.390,0.235,0.406,0.375,0.345,0.195,0.167,west-northwest,7.8,No
2016/12/11,21:10,0.390,0.234,0.405,0.375,0.344,0.194,0.168,northwest,7.9,No
2016/12/11,21:20,0.390,0.233,0.407,0.377,0.345,0.194,0.168,northwest,9.5,No
2016/12/11,21:30,0.388,0.233,0.408,0.377,0.344,0.195,0.168,northwest,9.4,No
2016/12/11,21:40,0.389,0.235,0.405,0.376,0.344,0.195,0.166,northwest,11.8,No
2016/12/11,21:50,0.389,0.234,0.406,0.377,0.344,0.195,0.168,north-northwest,10.2,No
2016/12/11,22:00,0.390,0.234,0.407,0.376,0.345,0.195,0.168,northwest,11.7,No
2016/12/11,22:10,0.389,0.234,0.406,0.376,0.344,0.194,0.167,northwest,13.4,No
2016/12/11,22:20,0.389,0.235,0.407,0.377,0.344,0.194,0.167,north-northwest,12.8,No
2016/12/11,22:30,0.389,0.233,0.407,0.375,0.345,0.194,0.167,north-northwest,13.8,No
2016/12/11,22:40,0.390,0.234,0.406,0.375,0.346,0.195,0.167,north-northwest,12.7,No
2016/12/11,22:50,0.388,0.234,0.406,0.376,0.345,0.194,0.169,north-northwest,11.0,No
2016/12/11,23:00,0.389,0.235,0.408,0.375,0.343,0.194,0.167,north,12.1,No
2016/12/11,23:10,0.390,0.235,0.407,0.377,0.344,0.195,0.167,north,8.3,No
2016/12/11,23:20,0.389,0.234,0.406,0.375,0.345,0.195,0.168,north,7.2,No
2016/12/11,23:30,0.392,0.234,0.406,0.376,0.343,0.195,0.167,north,6.7,No
2016/12/11,23:40,0.389,0.235,0.406,0.376,0.346,0.195,0.167,north,6.9,No
2016/12/11,23:50,0.391,0.234,0.408,0.376,0.345,0.194,0.168,north-northwest,6.6,No
